Location: Aulnoy
(48.8410°N, 3.0967°E)
Time: 09:50:54
(UTC+00:00)

USA 215 - Pass Details

Date: 09 February 2023
Orbit: 1097 x 1110 km, 123.0° (Epoch: 21 March)

Event Time Altitude Azimuth Distance (km) Brightness Sun altitude
Rises 17:24:15 0° 114° (ESE) 3,914 5.7 -4.9°
Reaches altitude 10° 17:26:43 10° 113° (ESE) 2,957 5.1 -5.3°
Maximum altitude 17:33:14 76° 29° (NNE) 1,133 3.3 -6.3°
Drops below altitude 10° 17:39:45 10° 305° (NW) 2,959 6.2 -7.4°
Sets 17:42:14 0° 304° (NW) 3,918 6.9 -7.8°
